Location: Croydon
(51.3762°N, 0.0982°W)
Time: 10:51:52
(UTC+00:00)

N. Korean satellite - Visible Passes

Search period start: 23 February 2019 00:00
Search period end: 05 March 2019 00:00
Orbit: 456 x 510 km, 97.2° (Epoch: 23 February)

Date Brightness Start Highest point End Pass type
(mag) Time Alt. Az. Time Alt. Az. Time Alt. Az.
23 Feb 10.7 18:45:11 10° W 18:45:46 10° W 18:46:23 10° WNW visible
24 Feb 7.7 06:03:12 10° NNE 06:06:34 47° E 06:09:54 10° S visible
24 Feb 9.9 18:18:11 10° SW 18:20:47 18° W 18:23:22 10° NW visible
25 Feb 9.1 05:38:47 10° NE 05:41:42 25° E 05:44:34 10° SSE visible
26 Feb 10.0 05:14:52 10° ENE 05:16:44 14° E 05:18:35 10° ESE visible
27 Feb 10.5 18:38:50 10° WSW 18:40:08 12° W 18:41:26 10° WNW visible
28 Feb 8.1 05:57:39 10° NNE 06:00:57 40° E 06:04:12 10° S visible
28 Feb 9.8 18:12:25 10° SW 18:15:09 20° W 18:17:52 10° NW visible
01 Mar 9.4 05:33:17 10° NE 05:36:03 22° E 05:38:46 10° SE visible
02 Mar 10.1 05:09:35 10° ENE 05:11:03 12° E 05:12:29 10° ESE visible
03 Mar 10.3 18:32:45 10° WSW 18:34:28 13° W 18:36:09 10° WNW visible
04 Mar 8.4 05:52:04 10° NNE 05:55:16 35° E 05:58:28 10° SSE visible
